Location: *
(17.3280°S, 114.7300°W)
Time: 07:39:22
(UTC+00:00)

BREEZE-M DEB (TANK) - Pass Details

Date: 05 August 2020
Orbit: 310 x 13943 km, 49.6° (Epoch: 20 September)

Event Time Altitude Azimuth Distance (km) Brightness Sun altitude
Exits shadow 13:06:21 20° 270° (W) 1,638 4.6 -13.8°
Maximum altitude 13:07:23 21° 290° (WNW) 1,372 4.4 -13.6°
Drops below altitude 10° 13:09:48 10° 344° (NNW) 1,504 5.0 -13.0°
Sets 13:11:31 0° 5° (N) 2,120 6.1 -12.6°
